Location: ??????
(38.1303°N, 24.0039°E)
Time: 16:18:04
(UTC+00:00)

Cosmos 1633 - Pass Details

Date: 20 June 2021
Orbit: 461 x 476 km, 82.5° (Epoch: 28 July)

Event Time Altitude Azimuth Distance (km) Brightness Sun altitude
Exits shadow 00:53:05 20° 294° (WNW) 1,114 4.2 -19.4°
Drops below altitude 10° 00:55:25 10° 335° (NNW) 1,617 5.6 -19.1°
Sets 00:57:53 0° 352° (N) 2,500 6.9 -18.8°
